When you browse on this site, cookies collect data to enhance your experience and personalize the content and advertising you see.
Visit our Privacy Policy to learn more. By continuing to use the site, you agree to this use of cookies and data.
  • In Spain
  • List of Countries
  • For 7 days
  • Water Temperature
  • Satellite Maps
  • Weather Map
  • Weather Widgets
  • user-avatar
    Login

    Hourly Weather Luanda

    Today, 18 June, Tuesday

    Time Temperature Precipitation Wind Pressure Humidity
    00:00 +20°C° 0 mm 4 mps 756 mmHg 93%
    01:00 +19°C° 0 mm 3 mps 756 mmHg 94%
    02:00 +19°C° 0 mm 3 mps 756 mmHg 94%
    03:00 +18°C° 0 mm 2 mps 756 mmHg 93%
    04:00 +18°C° 0 mm 2 mps 756 mmHg 93%
    05:00 +18°C° 0 mm 2 mps 756 mmHg 93%
    06:00 +18°C° 0 mm 2 mps 756 mmHg 92%
    07:00 +19°C° 0 mm 2 mps 756 mmHg 92%
    08:00 +23°C° 0 mm 2 mps 757 mmHg 77%
    09:00 +26°C° 0 mm 2 mps 757 mmHg 63%
    10:00 +29°C° 0 mm 3 mps 757 mmHg 48%
    11:00 +30°C° 0 mm 3 mps 756 mmHg 44%
    12:00 +33°C° 0 mm 4 mps 756 mmHg 40%
    13:00 +34°C° 0 mm 5 mps 755 mmHg 37%
    14:00 +33°C° 0 mm 5 mps 755 mmHg 43%
    15:00 +32°C° 0 mm 5 mps 754 mmHg 48%
    16:00 +29°C° 0 mm 6 mps 754 mmHg 54%
    17:00 +27°C° 0 mm 5 mps 754 mmHg 64%
    18:00 +25°C° 0 mm 5 mps 754 mmHg 73%
    19:00 +22°C° 0 mm 5 mps 755 mmHg 82%
    20:00 +21°C° 0 mm 4 mps 755 mmHg 86%
    21:00 +20°C° 0 mm 3 mps 756 mmHg 89%
    22:00 +20°C° 0 mm 2 mps 756 mmHg 93%
    23:00 +20°C° 0 mm 2 mps 756 mmHg 92%

    Tomorrow, 19 June, Wednesday

    Time Temperature Precipitation Wind Pressure Humidity
    00:00 +19°C° 0 mm 2 mps 756 mmHg 92%
    01:00 +19°C° 0 mm 3 mps 756 mmHg 92%
    02:00 +19°C° 0 mm 2 mps 756 mmHg 92%
    03:00 +18°C° 0 mm 2 mps 755 mmHg 92%
    04:00 +18°C° 0 mm 2 mps 755 mmHg 92%
    05:00 +18°C° 0 mm 2 mps 756 mmHg 91%
    06:00 +19°C° 0 mm 2 mps 756 mmHg 90%
    07:00 +19°C° 0 mm 2 mps 756 mmHg 89%
    08:00 +23°C° 0 mm 2 mps 756 mmHg 76%
    09:00 +26°C° 0 mm 2 mps 756 mmHg 64%
    10:00 +29°C° 0 mm 2 mps 756 mmHg 51%
    11:00 +31°C° 0 mm 2 mps 756 mmHg 44%
    12:00 +34°C° 0 mm 3 mps 755 mmHg 37%
    13:00 +36°C° 0 mm 3 mps 754 mmHg 30%
    14:00 +35°C° 0 mm 4 mps 754 mmHg 35%
    15:00 +34°C° 0 mm 5 mps 753 mmHg 39%
    16:00 +33°C° 0 mm 5 mps 753 mmHg 44%
    17:00 +29°C° 0 mm 5 mps 753 mmHg 55%
    18:00 +27°C° 0 mm 5 mps 754 mmHg 67%
    19:00 +23°C° 0 mm 5 mps 754 mmHg 78%
    20:00 +23°C° 0 mm 5 mps 755 mmHg 81%
    21:00 +22°C° 0 mm 4 mps 755 mmHg 84%
    22:00 +21°C° 0 mm 4 mps 756 mmHg 87%
    23:00 +21°C° 0 mm 3 mps 756 mmHg 88%

    Day after tomorrow, 20 June, Thursday

    Time Temperature Precipitation Wind Pressure Humidity
    00:00 +20°C° 0 mm 3 mps 756 mmHg 88%
    01:00 +20°C° 0 mm 2 mps 756 mmHg 89%
    02:00 +19°C° 0 mm 2 mps 756 mmHg 90%
    03:00 +19°C° 0 mm 2 mps 755 mmHg 91%
    04:00 +19°C° 0 mm 2 mps 755 mmHg 92%
    05:00 +19°C° 0 mm 2 mps 756 mmHg 91%
    06:00 +19°C° 0 mm 2 mps 756 mmHg 91%
    07:00 +20°C° 0 mm 2 mps 756 mmHg 91%
    08:00 +24°C° 0 mm 2 mps 756 mmHg 77%
    09:00 +27°C° 0 mm 2 mps 756 mmHg 63%
    10:00 +29°C° 0 mm 2 mps 756 mmHg 49%
    11:00 +31°C° 0 mm 3 mps 756 mmHg 42%
    12:00 +34°C° 0 mm 4 mps 755 mmHg 35%
    13:00 +37°C° 0 mm 5 mps 754 mmHg 28%
    14:00 +35°C° 0 mm 5 mps 754 mmHg 34%
    15:00 +34°C° 0 mm 6 mps 753 mmHg 39%
    16:00 +33°C° 0 mm 6 mps 753 mmHg 44%
    17:00 +30°C° 0 mm 6 mps 753 mmHg 53%
    18:00 +27°C° 0 mm 6 mps 754 mmHg 62%
    19:00 +24°C° 0 mm 6 mps 754 mmHg 71%
    20:00 +23°C° 0 mm 5 mps 755 mmHg 74%
    21:00 +22°C° 0 mm 4 mps 755 mmHg 78%
    22:00 +21°C° 0 mm 4 mps 755 mmHg 81%
    23:00 +21°C° 0 mm 3 mps 755 mmHg 82%

    21 June, Friday

    Time Temperature Precipitation Wind Pressure Humidity
    00:00 +20°C° 0 mm 2 mps 755 mmHg 83%
    01:00 +19°C° 0 mm 2 mps 755 mmHg 84%
    02:00 +19°C° 0 mm 2 mps 755 mmHg 85%
    03:00 +19°C° 0 mm 2 mps 755 mmHg 85%
    04:00 +18°C° 0 mm 2 mps 755 mmHg 86%
    05:00 +20°C° 0 mm 1 mps 755 mmHg 85%
    06:00 +20°C° 0 mm 1 mps 756 mmHg 84%
    07:00 +20°C° 0 mm 1 mps 756 mmHg 83%
    08:00 +23°C° 0 mm 1 mps 756 mmHg 72%
    09:00 +26°C° 0 mm 1 mps 757 mmHg 61%
    10:00 +29°C° 0 mm 1 mps 757 mmHg 50%
    11:00 +30°C° 0 mm 2 mps 756 mmHg 47%
    12:00 +31°C° 0 mm 3 mps 755 mmHg 43%
    13:00 +33°C° 0 mm 3 mps 755 mmHg 39%
    14:00 +32°C° 0 mm 4 mps 754 mmHg 44%
    15:00 +30°C° 0 mm 5 mps 754 mmHg 50%
    16:00 +29°C° 0 mm 5 mps 753 mmHg 55%
    17:00 +27°C° 0 mm 5 mps 753 mmHg 66%
    18:00 +25°C° 0 mm 4 mps 754 mmHg 77%
    19:00 +22°C° 0 mm 4 mps 754 mmHg 87%
    20:00 +21°C° 0 mm 3 mps 755 mmHg 90%
    21:00 +20°C° 0 mm 2 mps 755 mmHg 92%
    22:00 +20°C° 0 mm 2 mps 756 mmHg 94%
    23:00 +20°C° 0 mm 2 mps 756 mmHg 95%

    22 June, Saturday

    Time Temperature Precipitation Wind Pressure Humidity
    00:00 +20°C° 0 mm 2 mps 755 mmHg 95%
    01:00 +19°C° 0 mm 2 mps 755 mmHg 95%
    02:00 +19°C° 0 mm 2 mps 755 mmHg 95%
    03:00 +19°C° 0 mm 2 mps 755 mmHg 96%
    04:00 +19°C° 0 mm 3 mps 755 mmHg 96%
    05:00 +19°C° 0 mm 2 mps 756 mmHg 96%
    06:00 +19°C° 0 mm 2 mps 756 mmHg 96%
    07:00 +19°C° 0 mm 2 mps 756 mmHg 96%
    08:00 +23°C° 0 mm 2 mps 756 mmHg 85%
    09:00 +25°C° 0 mm 2 mps 756 mmHg 74%
    10:00 +27°C° 0 mm 2 mps 756 mmHg 63%
    11:00 +28°C° 0 mm 3 mps 756 mmHg 61%
    12:00 +28°C° 0 mm 3 mps 755 mmHg 59%
    13:00 +29°C° 0 mm 3 mps 755 mmHg 56%
    14:00 +28°C° 0 mm 4 mps 754 mmHg 59%
    15:00 +28°C° 0 mm 4 mps 754 mmHg 61%
    16:00 +27°C° 0 mm 5 mps 754 mmHg 64%
    17:00 +25°C° 0 mm 4 mps 754 mmHg 72%
    18:00 +23°C° 0 mm 4 mps 755 mmHg 80%
    19:00 +21°C° 0 mm 3 mps 755 mmHg 88%
    20:00 +21°C° 0 mm 3 mps 755 mmHg 89%
    21:00 +20°C° 0 mm 3 mps 756 mmHg 91%
    22:00 +20°C° 0 mm 2 mps 756 mmHg 92%
    23:00 +19°C° 0 mm 2 mps 756 mmHg 93%

    23 June, Sunday

    Time Temperature Precipitation Wind Pressure Humidity
    00:00 +20°C° 0 mm 1 mps 756 mmHg 95%
    01:00 +19°C° 0 mm 1 mps 756 mmHg 96%
    02:00 +19°C° 0 mm 1 mps 756 mmHg 96%
    03:00 +18°C° 0 mm 2 mps 756 mmHg 96%
    04:00 +18°C° 0 mm 3 mps 756 mmHg 96%
    05:00 +19°C° 0 mm 3 mps 756 mmHg 95%
    06:00 +19°C° 0 mm 3 mps 756 mmHg 93%
    07:00 +20°C° 0 mm 2 mps 756 mmHg 91%
    08:00 +23°C° 0 mm 2 mps 757 mmHg 80%
    09:00 +25°C° 0 mm 1 mps 757 mmHg 68%
    10:00 +25°C° 0 mm 0 mps 757 mmHg 57%
    11:00 +28°C° 0 mm 2 mps 756 mmHg 52%
    12:00 +30°C° 0 mm 3 mps 756 mmHg 48%
    13:00 +32°C° 0 mm 4 mps 755 mmHg 44%
    14:00 +29°C° 0 mm 4 mps 755 mmHg 49%
    15:00 +28°C° 0 mm 4 mps 754 mmHg 53%
    16:00 +27°C° 0 mm 5 mps 754 mmHg 58%
    17:00 +25°C° 0 mm 4 mps 754 mmHg 68%
    18:00 +22°C° 0 mm 4 mps 755 mmHg 78%
    19:00 +21°C° 0 mm 3 mps 755 mmHg 88%
    20:00 +20°C° 0 mm 3 mps 755 mmHg 90%
    21:00 +20°C° 0 mm 3 mps 756 mmHg 92%
    22:00 +19°C° 0 mm 2 mps 756 mmHg 94%
    23:00 +19°C° 0 mm 2 mps 756 mmHg 95%
    Show more